DW5375 Decatur Island WA US current weather conditions

sailwx.info

Wind from 169 at 1 knots gusting 5

Air temperature 17.8° C
Dewpoint 12.7° C

Last reported at 2020-Jul-13 18:00 UTC.
Time now 2020-Jul-13 18:23 UTC

Location: N 48°31' W 122°50'.
View on Google Maps.

See reports from other nearby stations

  
Tides and Currents Weather Stations Pressure Air Temp Water Temp Dewpoint Dewpoint Depression Visibility Wind Speed Wind Dir Waves Ship Positions
date/time (UTC)wind fromknots sea level pressurealtimeterstation pressurevisibilityair tempwater tempwave heightnotes
2020-Jul-13 18:00 169 1 gusting 5 17.8
2020-Jul-13 17:45 192 2 gusting 4 18.3
2020-Jul-13 17:30 199 0 gusting 4 17.2
2020-Jul-13 17:15 161 1 gusting 3 16.7
2020-Jul-13 17:00 197 1 gusting 3 16.1
2020-Jul-13 16:45 191 2 gusting 3 15.6
2020-Jul-13 16:30 181 1 gusting 3 14.4
2020-Jul-13 16:15 184 2 gusting 3 13.3
2020-Jul-13 16:00 190 2 gusting 4 12.2
2020-Jul-13 15:45 185 1 gusting 2 12.2
2020-Jul-13 15:30 204 1 gusting 2 11.7
2020-Jul-13 15:15 186 11.1
2020-Jul-13 15:00 186 11.7
2020-Jul-13 14:45 186 11.1
2020-Jul-13 14:30 186 0 gusting 1 10.6
2020-Jul-13 14:15 186 0 gusting 1 10.0
2020-Jul-13 14:00 185 10.0
2020-Jul-13 13:16 186 0 gusting 1 9.4
2020-Jul-13 13:02 186 0 gusting 1 9.4
2020-Jul-13 12:47 185 9.4
2020-Jul-13 12:31 186 0 gusting 1 9.4
2020-Jul-13 12:16 186 9.4
2020-Jul-13 11:46 186 9.4
2020-Jul-13 11:31 186 9.4
2020-Jul-13 11:16 185 9.4
2020-Jul-13 11:01 186 9.4
2020-Jul-13 10:46 186 0 gusting 1 9.4
2020-Jul-13 10:32 185 9.4
2020-Jul-13 10:16 186 9.4
2020-Jul-13 10:01 186 10.0
2020-Jul-13 09:45 185 10.0
2020-Jul-13 09:32 186 10.0
2020-Jul-13 09:15 186 10.0
2020-Jul-13 09:00 186 10.6
2020-Jul-13 08:46 186 10.6
2020-Jul-13 08:31 186 10.6
2020-Jul-13 08:16 186 0 gusting 1 10.6
2020-Jul-13 07:45 186 11.1
2020-Jul-13 07:30 186 11.1
2020-Jul-13 07:15 186 11.1
2020-Jul-13 07:01 186 0 gusting 1 11.1
2020-Jul-13 06:45 186 11.7
2020-Jul-13 06:31 186 0 gusting 1 11.7
2020-Jul-13 06:15 186 12.2
2020-Jul-13 06:01 186 12.8
2020-Jul-13 05:45 186 12.8
2020-Jul-13 05:30 186 13.3
2020-Jul-13 05:15 186 13.3
2020-Jul-13 05:00 186 12.8
2020-Jul-13 04:45 185 13.3
2020-Jul-13 04:30 186 13.3
2020-Jul-13 04:15 185 13.9
2020-Jul-13 04:00 185 14.4
2020-Jul-13 03:45 176 15.0
2020-Jul-13 03:30 176 0 gusting 3 15.0
2020-Jul-13 03:15 167 15.6
2020-Jul-13 03:00 167 15.6
2020-Jul-13 02:45 184 1 gusting 3 15.6
2020-Jul-13 02:30 177 1 gusting 4 15.6
2020-Jul-13 02:15 209 2 gusting 5 15.6
2020-Jul-13 02:00 205 2 gusting 6 16.1
2020-Jul-13 01:45 131 0 gusting 4 16.7
2020-Jul-13 01:30 206 2 gusting 4 16.7
2020-Jul-13 01:15 173 2 gusting 6 16.7
2020-Jul-13 01:00 178 4 gusting 6 17.2
2020-Jul-13 00:45 171 2 gusting 6 17.8
2020-Jul-13 00:30 213 4 gusting 6 18.9
2020-Jul-13 00:15 206 3 gusting 6 19.4
2020-Jul-13 00:00 202 3 gusting 6 20.6
2020-Jul-12 23:45 209 3 gusting 5 19.4
2020-Jul-12 23:30 225 3 gusting 6 19.4
2020-Jul-12 23:15 178 2 gusting 7 18.9
2020-Jul-12 23:00 208 1 gusting 6 19.4
2020-Jul-12 22:45 218 4 gusting 6 20.6
2020-Jul-12 22:15 205 3 gusting 6 20.6
2020-Jul-12 22:00 207 2 gusting 5 23.3
2020-Jul-12 21:45 204 2 gusting 3 24.4
2020-Jul-12 21:30 218 3 gusting 4 24.4
2020-Jul-12 21:15 225 3 gusting 5 24.4
2020-Jul-12 21:01 224 2 gusting 5 23.3
2020-Jul-12 20:47 213 2 gusting 5 22.8
2020-Jul-12 20:31 223 3 gusting 6 22.2
2020-Jul-12 20:16 227 3 gusting 5 21.1
2020-Jul-12 20:02 210 3 gusting 4 19.4
2020-Jul-12 19:47 190 2 gusting 4 22.8
2020-Jul-12 19:31 207 2 gusting 4 23.3
2020-Jul-12 19:16 229 3 gusting 5 22.2
2020-Jul-12 19:01 215 4 gusting 6 22.8
2020-Jul-12 18:46 215 2 gusting 4 22.8
2020-Jul-12 18:31 212 2 gusting 5 21.1
2020-Jul-12 18:16 171 2 gusting 7 18.9
2020-Jul-12 18:00 161 3 gusting 6 19.4
2020-Jul-12 17:47 215 3 gusting 5 19.4
2020-Jul-12 17:31 217 4 gusting 6 18.9
2020-Jul-12 17:16 200 4 gusting 6 18.3
2020-Jul-12 17:01 186 2 gusting 3 18.3
2020-Jul-12 16:45 219 2 gusting 5 16.7
2020-Jul-12 16:30 204 2 gusting 5 16.1
2020-Jul-12 16:15 198 2 gusting 6 15.0
2020-Jul-12 16:00 227 2 gusting 6 13.9
2020-Jul-12 15:45 160 2 gusting 5 13.3
2020-Jul-12 15:31 189 12.8
2020-Jul-12 15:15 172 12.8
2020-Jul-12 15:00 184 0 gusting 3 12.2
2020-Jul-12 14:45 198 2 gusting 4 12.2
2020-Jul-12 14:15 183 0 gusting 3 11.7
2020-Jul-12 13:45 195 11.7
2020-Jul-12 13:30 179 11.7
2020-Jul-12 13:15 115 0 gusting 1 11.1
2020-Jul-12 12:46 223 2 gusting 4 11.1
2020-Jul-12 12:32 217 2 gusting 5 11.1
2020-Jul-12 12:16 186 1 gusting 5 11.7
2020-Jul-12 12:02 187 1 gusting 5 11.7
2020-Jul-12 11:46 211 4 gusting 6 11.7
2020-Jul-12 11:31 177 2 gusting 6 11.7
2020-Jul-12 11:16 154 1 gusting 6 11.7
2020-Jul-12 11:00 228 2 gusting 6 11.7
2020-Jul-12 10:47 155 4 gusting 6 12.2
2020-Jul-12 10:31 148 5 gusting 6 12.2
2020-Jul-12 10:16 209 3 gusting 4 12.8
2020-Jul-12 10:01 180 1 gusting 3 12.8
2020-Jul-12 09:46 206 0 gusting 2 12.8
2020-Jul-12 09:31 201 0 gusting 1 12.2
2020-Jul-12 09:16 201 12.2
2020-Jul-12 09:01 183 1 gusting 6 12.2
2020-Jul-12 08:46 174 5 gusting 7 12.8
2020-Jul-12 08:30 138 12.2
2020-Jul-12 08:15 198 12.2
2020-Jul-12 08:01 198 12.8
2020-Jul-12 07:46 195 2 gusting 4 12.2
2020-Jul-12 07:30 011 0 gusting 3 11.7
2020-Jul-12 07:16 199 1 gusting 5 12.8
2020-Jul-12 07:00 175 0 gusting 2 11.7
2020-Jul-12 06:45 203 0 gusting 1 11.7
2020-Jul-12 06:31 231 0 gusting 1 11.7
2020-Jul-12 06:16 015 11.7
2020-Jul-12 06:00 015 0 gusting 2 12.2
2020-Jul-12 05:45 200 12.2
2020-Jul-12 05:31 164 12.2
2020-Jul-12 05:16 054 12.8
2020-Jul-12 05:01 324 12.8
2020-Jul-12 04:45 324 0 gusting 1 12.8
2020-Jul-12 04:30 189 12.8
2020-Jul-12 04:15 189 12.8
2020-Jul-12 04:00 189 13.3
2020-Jul-12 03:45 189 13.3
2020-Jul-12 03:30 283 13.3
2020-Jul-12 03:15 283 13.9
2020-Jul-12 03:00 283 13.9
2020-Jul-12 02:45 342 13.9
2020-Jul-12 02:30 206 13.9
2020-Jul-12 02:15 206 0 gusting 2 13.9
2020-Jul-12 02:00 202 0 gusting 2 13.9
2020-Jul-12 01:45 185 0 gusting 3 13.9
2020-Jul-12 01:30 178 0 gusting 2 13.9
2020-Jul-12 01:15 219 0 gusting 2 14.4
2020-Jul-12 00:45 241 0 gusting 1 13.9
2020-Jul-12 00:30 202 14.4
2020-Jul-12 00:15 205 0 gusting 3 14.4
2020-Jul-12 00:00 213 14.4
2020-Jul-11 23:45 213 14.4
2020-Jul-11 23:30 213 14.4
2020-Jul-11 23:15 213 14.4
2020-Jul-11 23:00 190 14.4
2020-Jul-11 22:45 015 14.4
2020-Jul-11 22:30 017 1 gusting 3 15.0
2020-Jul-11 22:01 218 0 gusting 2 16.1
2020-Jul-11 21:45 219 2 gusting 4 15.6
2020-Jul-11 21:30 173 1 gusting 4 15.0
2020-Jul-11 21:15 153 3 gusting 4 15.6
2020-Jul-11 21:00 159 3 gusting 6 15.0
2020-Jul-11 20:45 193 3 gusting 6 16.1
2020-Jul-11 20:30 193 2 gusting 6 15.6
2020-Jul-11 20:15 193 3 gusting 6 15.6
2020-Jul-11 20:00 165 3 gusting 6 16.1
2020-Jul-11 19:45 190 5 gusting 8 16.1
2020-Jul-11 19:30 185 4 gusting 7 16.7
2020-Jul-11 19:16 196 5 gusting 6 16.7
2020-Jul-11 19:02 200 4 gusting 6 16.1
2020-Jul-11 18:46 171 4 gusting 6 16.1
2020-Jul-11 18:32 187 4 gusting 6 15.6
2020-Jul-11 18:16 181 4 gusting 6 15.0
2020-Jul-11 18:01 188 5 gusting 6 15.0